Weather History for KSGJ - October, 2012

Change the Weather History Date:

Monday, October 8, 2012

  Actual Average Record
Temperature  
Mean Temperature 78 °F -  
Max Temperature 84 °F 78 °F 91 °F (1989)
Min Temperature 73 °F 67 °F 49 °F (1987)
Cooling Degree Days 14    
Growing Degree Days 28 (Base 50)    
Moisture  
Dew Point 73 °F    
Average Humidity 81    
Maximum Humidity 94    
Minimum Humidity 69    
Precipitation  
Precipitation 0.00 in - - ()
Sea Level Pressure  
Sea Level Pressure 30.00 in    
Wind  
Wind Speed 4 mph (South)    
Max Wind Speed 13 mph    
Max Gust Speed 23 mph    
Visibility 9 miles    
Events Rain , Thunderstorm    
Averages and records for this station are not official NWS values.
T = Trace of Precipitation, MM = Missing Value Source: NWS Daily Summary

Daily Weather History Graph

Daily Weather History Graph

Search for Another Location

Airport or City:

Trip Planner

Search our weather history database for the weather conditions in past years. The results will help you decide how hot, cold, wet, or windy it might be!

Date:

Astronomy

Oct. 08, 2012 Rise Set
Actual Time 7:23 AM EDT 7:01 PM EDT
Civil Twilight 6:59 AM EDT 7:25 PM EDT
Nautical Twilight 6:31 AM EDT 7:53 PM EDT
Astronomical Twilight 6:03 AM EDT 8:21 PM EDT
Moon 12:29 AM EDT (10/8) 2:23 PM EDT (10/8)
Length of Visible Light 12h 26m
Length of Day
11h 38m
Waning Gibbous, 46% of the Moon is Illuminated
Oct 8
Waning Gibbous
Oct 15
New
Oct 21
First Quarter
Oct 29
Full
Nov 6
Last Quarter

Hourly Weather History & Observations

Time (EDT) Temp. Heat Index Dew Point Humidity Pressure Visibility Wind Dir Wind Speed Gust Speed Precip Events Conditions
12:58 AM 75.0 °F - 73.0 °F 94% 29.99 in 10.0 mi SSW 3.5 mph - N/A   Clear
1:58 AM 75.0 °F - 73.0 °F 94% 29.99 in 10.0 mi SSW 4.6 mph - N/A   Clear
2:58 AM 75.0 °F - 73.0 °F 94% 29.98 in 10.0 mi Calm Calm - N/A   Clear
3:58 AM 73.9 °F - 72.0 °F 93% 29.98 in 10.0 mi Calm Calm - N/A   Clear
4:58 AM 73.9 °F - 72.0 °F 93% 29.98 in 10.0 mi Calm Calm - N/A   Clear
5:58 AM 73.9 °F - 71.1 °F 91% 29.99 in 10.0 mi Calm Calm - N/A   Clear
6:58 AM 73.0 °F - 71.1 °F 93% 30.00 in 10.0 mi Calm Calm - N/A   Clear
8:58 AM 78.1 °F - 75.0 °F 90% 30.03 in 10.0 mi Calm Calm - N/A   Clear
9:58 AM 81.0 °F 86.7 °F 75.0 °F 82% 30.04 in 10.0 mi WNW 3.5 mph - N/A   Clear
10:51 AM 82.4 °F 88.2 °F 73.4 °F 74% 30.05 in 10.0 mi SW 4.6 mph - N/A   Mostly Cloudy
10:58 AM 81.0 °F 86.2 °F 73.9 °F 79% 30.05 in 10.0 mi SSW 4.6 mph - N/A   Mostly Cloudy
11:02 AM 80.6 °F 85.4 °F 73.4 °F 79% 30.05 in 10.0 mi SSW 4.6 mph - N/A   Partly Cloudy
11:48 AM 82.4 °F 88.2 °F 73.4 °F 74% 30.04 in 10.0 mi South 5.8 mph - N/A   Mostly Cloudy
11:58 AM 82.9 °F 88.8 °F 73.0 °F 72% 30.04 in 10.0 mi South 3.5 mph - N/A   Mostly Cloudy
12:02 PM 84.2 °F 90.9 °F 73.4 °F 70% 30.04 in 10.0 mi South 5.8 mph - N/A   Mostly Cloudy
12:11 PM 84.2 °F 90.9 °F 73.4 °F 70% 30.03 in 10.0 mi South 8.1 mph - N/A   Mostly Cloudy
12:25 PM 84.2 °F 90.9 °F 73.4 °F 70% 30.03 in 10.0 mi South 3.5 mph - N/A   Scattered Clouds
12:51 PM 84.2 °F 90.9 °F 73.4 °F 70% 30.03 in 10.0 mi SSE 4.6 mph 23.0 mph N/A   Mostly Cloudy
12:58 PM 84.0 °F 90.2 °F 73.0 °F 69% 30.02 in 10.0 mi SSE 6.9 mph - N/A   Mostly Cloudy
1:02 PM 84.2 °F 90.9 °F 73.4 °F 70% 30.02 in 10.0 mi Variable 3.5 mph - N/A   Scattered Clouds
1:41 PM 82.4 °F 89.5 °F 75.2 °F 79% 29.99 in 10.0 mi ESE 9.2 mph - N/A   Overcast
1:58 PM 82.9 °F 89.4 °F 73.9 °F 74% 29.98 in 10.0 mi ESE 8.1 mph - N/A   Overcast
2:58 PM 82.9 °F 89.4 °F 73.9 °F 74% 29.97 in 10.0 mi SSE 10.4 mph - N/A   Overcast
3:02 PM 84.2 °F 90.9 °F 73.4 °F 70% 29.96 in 10.0 mi SE 9.2 mph - N/A   Mostly Cloudy
3:58 PM 82.0 °F 87.9 °F 73.9 °F 76% 29.96 in 10.0 mi SSE 10.4 mph - N/A   Mostly Cloudy
4:02 PM 80.6 °F 85.4 °F 73.4 °F 79% 29.96 in 10.0 mi SSE 9.2 mph - N/A   Scattered Clouds
4:10 PM 80.6 °F 85.4 °F 73.4 °F 79% 29.96 in 10.0 mi SSE 8.1 mph - N/A   Mostly Cloudy
4:58 PM 81.0 °F 85.8 °F 73.0 °F 77% 29.97 in 10.0 mi South 5.8 mph - N/A   Mostly Cloudy
5:02 PM 80.6 °F 85.4 °F 73.4 °F 79% 29.97 in 10.0 mi SSE 8.1 mph - N/A   Clear
5:15 PM 80.6 °F 85.4 °F 73.4 °F 79% 29.98 in 7.0 mi South 9.2 mph - N/A   Mostly Cloudy
5:31 PM 80.6 °F 84.6 °F 71.6 °F 74% 29.97 in 7.0 mi South 5.8 mph - N/A Thunderstorm Mostly Cloudy
5:58 PM 78.1 °F - 71.1 °F 79% 29.96 in 7.0 mi South 12.7 mph - N/A Thunderstorm Thunderstorm
6:23 PM 75.2 °F - 71.6 °F 89% 29.96 in 5.0 mi SSW 4.6 mph - 0.00 in Rain Light Rain
6:58 PM 75.9 °F - 72.0 °F 87% 29.98 in 5.0 mi WNW 3.5 mph - 0.00 in   Mostly Cloudy
7:02 PM 75.2 °F - 71.6 °F 89% 29.98 in 10.0 mi NW 4.6 mph - N/A   Scattered Clouds
7:58 PM 75.0 °F - 71.1 °F 87% 30.00 in 5.0 mi NNW 4.6 mph - N/A   Scattered Clouds
8:58 PM 75.0 °F - 71.1 °F 87% 30.02 in 10.0 mi North 4.6 mph - N/A   Partly Cloudy
9:58 PM 75.9 °F - 71.1 °F 85% 30.03 in 10.0 mi NNE 4.6 mph - N/A   Clear
10:58 PM 73.9 °F - 71.1 °F 91% 30.04 in 10.0 mi NW 4.6 mph - N/A   Clear
11:17 PM 75.2 °F - 71.6 °F 89% 30.04 in 10.0 mi NNW 5.8 mph - N/A   Mostly Cloudy
11:49 PM 75.2 °F - 71.6 °F 89% 30.04 in 10.0 mi NNE 4.6 mph - N/A   Scattered Clouds